QPF
0.11 0.11 0.12 0.10 0.10 0.18 0.18 0.14 0.17 0.16 0.18 0.19 0.16 0.15 0.14 0.10 0.08 0.05 0.03 0.02 0.01 0.01 0.01 0.01 0.01 0.01 0.01 0.02 0.01 0.01 0.01 0.00 0.00 0.00 0.01 0.01 0.01 0.01 0.01 0.01 0.02 0.03 0.03
0.10 0.12 0.14 0.11 0.08 0.11 0.16 0.14 0.15 0.15 0.15 0.16 0.15 0.14 0.12 0.07 0.05 0.03 0.03 0.01 0.01 0.01 0.00 0.00 0.00 0.01 0.01 0.01 0.00 0.00 0.01 0.01 0.00 0.01 0.01 0.01 0.01 0.01 0.00 0.01 0.01 0.01 0.02
0.08 0.10 0.12 0.10 0.08 0.08 0.11 0.12 0.12 0.13 0.12 0.12 0.12 0.10 0.09 0.06 0.05 0.04 0.03 0.01 0.01 0.00 0.00 0.00 0.00 0.00 0.00 0.01 0.00 0.00 0.01 0.01 0.01 0.01 0.01 0.01 0.02 0.02 0.01 0.00 0.00 0.00 0.01
0.08 0.08 0.07 0.08 0.06 0.05 0.09 0.12 0.12 0.11 0.10 0.10 0.10 0.08 0.06 0.06 0.05 0.03 0.03 0.02 0.01 0.00 0.00 0.01 0.01 0.00 0.00 0.00 0.00 0.00 0.00 0.00 0.01 0.01 0.01 0.01 0.01 0.01 0.01 0.01 0.00 0.01 0.01
0.06 0.06 0.05 0.05 0.05 0.04 0.08 0.09 0.11 0.10 0.08 0.08 0.10 0.09 0.07 0.05 0.04 0.03 0.03 0.02 0.01 0.01 0.00 0.00 0.01 0.01 0.00 0.00 0.00 0.00 0.00 0.00 0.00 0.00 0.00 0.00 0.00 0.00 0.00 0.01 0.00 0.00 0.00
0.03 0.04 0.04 0.04 0.05 0.04 0.07 0.08 0.09 0.09 0.07 0.06 0.06 0.06 0.07 0.05 0.05 0.04 0.03 0.01 0.01 0.01 0.00 0.01 0.01 0.01 0.01 0.00 0.01 0.01 0.00 0.00 0.00 0.00 0.00 0.00 0.00 0.00 0.00 0.00 0.00 0.00 0.00
0.02 0.03 0.03 0.03 0.04 0.05 0.06 0.08 0.08 0.06 0.05 0.04 0.05 0.06 0.06 0.04 0.04 0.03 0.02 0.01 0.01 0.01 0.01 0.01 0.01 0.01 0.01 0.01 0.01 0.01 0.01 0.01 0.01 0.00 0.00 0.00 0.00 0.00 0.00 0.00 0.00 0.00 0.00
0.01 0.02 0.02 0.02 0.02 0.03 0.04 0.06 0.07 0.05 0.05 0.05 0.05 0.05 0.04 0.02 0.02 0.02 0.02 0.01 0.00 0.00 0.01 0.00 0.01 0.01 0.00 0.00 0.01 0.01 0.00 0.00 0.00 0.00 0.00 0.00 0.00 0.00 0.00 0.00 0.00 0.00 0.00
0.01 0.02 0.02 0.02 0.02 0.02 0.02 0.04 0.06 0.06 0.06 0.05 0.04 0.04 0.03 0.02 0.02 0.02 0.01 0.00 0.00 0.00 0.00 0.00 0.01 0.00 0.00 0.00 0.01 0.00 0.00 0.00 0.00 0.00 0.00 0.01 0.00 0.00 0.00 0.00 0.00 0.00 0.00
0.00 0.01 0.01 0.01 0.02 0.02 0.02 0.03 0.04 0.04 0.04 0.03 0.03 0.02 0.02 0.01 0.02 0.01 0.01 0.00 0.00 0.00 0.00 0.00 0.00 0.00 0.00 0.00 0.00 0.00 0.00 0.00 0.00 0.00 0.00 0.00 0.00 0.00 0.00 0.00 0.00 0.00 0.00
0.00 0.00 0.00 0.01 0.01 0.02 0.02 0.02 0.03 0.04 0.03 0.02 0.03 0.03 0.02 0.01 0.01 0.01 0.00 0.00 0.00 0.00 0.00 0.00 0.00 0.00 0.00 0.00 0.00 0.00 0.00 0.00 0.00 0.00 0.00 0.00 0.00 0.00 0.00 0.00 0.00 0.00 0.00
0.00 0.00 0.00 0.00 0.00 0.01 0.01 0.00 0.01 0.02 0.01 0.01 0.02 0.03 0.02 0.01 0.01 0.01 0.01 0.00 0.00 0.00 0.00 0.00 0.00 0.00 0.00 0.00 0.00 0.00 0.00 0.00 0.00 0.00 0.00 0.00 0.00 0.01 0.01 0.00 0.00 0.01 0.01
0.00 0.00 0.00 0.01 0.00 0.00 0.00 0.00 0.00 0.00 0.01 0.02 0.03 0.02 0.01 0.01 0.01 0.01 0.01 0.01 0.01 0.01 0.01 0.00 0.00 0.00 0.00 0.00 0.00 0.00 0.00 0.00 0.00 0.00 0.00 0.00 0.00 0.00 0.01 0.01 0.01 0.01 0.00
0.00 0.01 0.01 0.03 0.03 0.01 0.00 0.00 0.00 0.01 0.02 0.04 0.04 0.03 0.03 0.02 0.02 0.02 0.02 0.02 0.02 0.02 0.02 0.01 0.00 0.00 0.00 0.00 0.00 0.00 0.00 0.00 0.00 0.00 0.00 0.00 0.00 0.00 0.00 0.01 0.01 0.00 0.00
0.01 0.01 0.01 0.01 0.04 0.04 0.02 0.01 0.01 0.03 0.05 0.08 0.06 0.05 0.05 0.06 0.05 0.04 0.05 0.05 0.04 0.03 0.03 0.02 0.01 0.00 0.00 0.00 0.00 0.00 0.00 0.00 0.00 0.00 0.00 0.00 0.00 0.00 0.00 0.00 0.00 0.00 0.00
0.00 0.00 0.00 0.00 0.02 0.03 0.02 0.01 0.02 0.03 0.04 0.08 0.10 0.07 0.06 0.06 0.05 0.05 0.06 0.07 0.06 0.05 0.03 0.03 0.03 0.02 0.01 0.00 0.00 0.00 0.00 0.00 0.00 0.00 0.00 0.00 0.00 0.00 0.00 0.00 0.00 0.00 0.00
0.00 0.00 0.00 0.01 0.01 0.01 0.01 0.01 0.01 0.03 0.04 0.05 0.07 0.08 0.10 0.09 0.07 0.05 0.05 0.04 0.04 0.04 0.04 0.05 0.05 0.03 0.02 0.00 0.00 0.00 0.00 0.00 0.00 0.00 0.00 0.00 0.00 0.00 0.00 0.00 0.00 0.00 0.00
0.00 0.00 0.01 0.01 0.02 0.02 0.01 0.01 0.01 0.02 0.04 0.05 0.06 0.06 0.09 0.11 0.10 0.09 0.07 0.06 0.06 0.05 0.06 0.05 0.06 0.05 0.03 0.02 0.01 0.01 0.00 0.00 0.00 0.00 0.00 0.00 0.00 0.00 0.00 0.01 0.01 0.01 0.01
0.00 0.00 0.00 0.01 0.01 0.02 0.02 0.02 0.03 0.04 0.06 0.08 0.08 0.06 0.07 0.09 0.11 0.10 0.09 0.09 0.09 0.09 0.09 0.09 0.07 0.06 0.04 0.03 0.03 0.03 0.01 0.01 0.00 0.00 0.00 0.01 0.01 0.01 0.01 0.01 0.02 0.02 0.01
0.00 0.00 0.01 0.01 0.01 0.01 0.02 0.03 0.05 0.05 0.07 0.07 0.08 0.08 0.09 0.10 0.10 0.11 0.12 0.13 0.12 0.11 0.10 0.09 0.07 0.06 0.05 0.04 0.05 0.05 0.03 0.02 0.02 0.02 0.02 0.01 0.02 0.01 0.02 0.03 0.03 0.02 0.02
0.01 0.01 0.03 0.03 0.02 0.02 0.03 0.05 0.08 0.09 0.08 0.07 0.08 0.10 0.15 0.20 0.18 0.15 0.14 0.14 0.13 0.11 0.10 0.09 0.08 0.07 0.06 0.05 0.05 0.04 0.03 0.03 0.02 0.01 0.01 0.01 0.02 0.02 0.02 0.02 0.02 0.02 0.02
0.01 0.02 0.03 0.04 0.05 0.05 0.05 0.06 0.07 0.06 0.05 0.05 0.06 0.07 0.11 0.14 0.16 0.17 0.15 0.13 0.12 0.10 0.09 0.09 0.07 0.07 0.07 0.07 0.06 0.05 0.05 0.04 0.02 0.01 0.00 0.00 0.01 0.01 0.01 0.01 0.00 0.00 0.01
0.01 0.02 0.02 0.02 0.04 0.05 0.06 0.09 0.08 0.07 0.08 0.09 0.08 0.07 0.06 0.07 0.08 0.09 0.09 0.08 0.07 0.06 0.05 0.05 0.05 0.05 0.06 0.08 0.08 0.07 0.06 0.05 0.04 0.02 0.01 0.00 0.01 0.00 0.00 0.00 0.00 0.00 0.00
0.01 0.02 0.02 0.03 0.02 0.02 0.02 0.03 0.05 0.05 0.07 0.09 0.11 0.09 0.07 0.06 0.06 0.05 0.05 0.05 0.05 0.05 0.05 0.05 0.06 0.07 0.08 0.09 0.09 0.09 0.08 0.07 0.04 0.02 0.01 0.01 0.01 0.00 0.00 0.00 0.00 0.00 0.00
0.01 0.01 0.02 0.03 0.03 0.03 0.02 0.02 0.02 0.03 0.06 0.09 0.09 0.08 0.06 0.06 0.05 0.05 0.05 0.06 0.06 0.06 0.06 0.06 0.06 0.07 0.08 0.09 0.08 0.07 0.06 0.04 0.04 0.03 0.02 0.02 0.02 0.02 0.02 0.02 0.02 0.03 0.04
0.01 0.01 0.01 0.01 0.01 0.01 0.01 0.01 0.02 0.02 0.03 0.03 0.04 0.04 0.03 0.03 0.03 0.04 0.04 0.04 0.03 0.03 0.03 0.03 0.03 0.03 0.02 0.03 0.03 0.03 0.03 0.03 0.03 0.03 0.02 0.02 0.02 0.02 0.03 0.03 0.04 0.04 0.05
MSLP
1010.52 1010.92 1011.08 1011.07 1010.99 1010.93 1011.01 1011.29 1011.80 1012.49 1013.28 1014.09 1014.82 1015.39 1015.76 1015.93 1015.95 1015.89 1015.83 1015.81 1015.90 1016.09 1016.38 1016.73 1017.08 1017.40 1017.65 1017.83 1017.93 1017.99 1018.02 1018.04 1018.09 1018.15 1018.22 1018.28 1018.31 1018.30 1018.24 1018.15 1018.03 1017.91 1017.82
1010.35 1010.82 1011.05 1011.10 1011.06 1011.04 1011.15 1011.46 1011.99 1012.72 1013.56 1014.41 1015.17 1015.74 1016.10 1016.23 1016.20 1016.07 1015.94 1015.88 1015.94 1016.13 1016.45 1016.85 1017.26 1017.63 1017.93 1018.12 1018.23 1018.27 1018.28 1018.29 1018.32 1018.38 1018.46 1018.54 1018.59 1018.58 1018.52 1018.39 1018.22 1018.04 1017.87
1010.03 1010.58 1010.91 1011.05 1011.09 1011.14 1011.30 1011.64 1012.20 1012.94 1013.80 1014.65 1015.40 1015.96 1016.29 1016.38 1016.30 1016.12 1015.94 1015.85 1015.90 1016.11 1016.45 1016.89 1017.35 1017.76 1018.09 1018.32 1018.44 1018.48 1018.48 1018.49 1018.53 1018.60 1018.70 1018.81 1018.89 1018.91 1018.85 1018.71 1018.51 1018.27 1018.03
1009.64 1010.27 1010.70 1010.96 1011.10 1011.23 1011.45 1011.82 1012.39 1013.11 1013.94 1014.76 1015.47 1016.00 1016.29 1016.35 1016.24 1016.04 1015.84 1015.74 1015.79 1016.00 1016.37 1016.83 1017.33 1017.78 1018.14 1018.39 1018.52 1018.58 1018.60 1018.62 1018.68 1018.78 1018.91 1019.06 1019.17 1019.22 1019.19 1019.05 1018.83 1018.56 1018.27
1009.22 1009.93 1010.47 1010.85 1011.10 1011.32 1011.59 1011.98 1012.52 1013.20 1013.96 1014.71 1015.36 1015.84 1016.09 1016.14 1016.02 1015.82 1015.63 1015.55 1015.61 1015.84 1016.23 1016.71 1017.21 1017.68 1018.06 1018.33 1018.49 1018.57 1018.62 1018.67 1018.75 1018.89 1019.06 1019.24 1019.40 1019.48 1019.47 1019.36 1019.15 1018.87 1018.55
1008.82 1009.61 1010.25 1010.74 1011.10 1011.40 1011.71 1012.09 1012.59 1013.20 1013.87 1014.52 1015.09 1015.51 1015.74 1015.77 1015.67 1015.51 1015.36 1015.31 1015.40 1015.66 1016.05 1016.53 1017.04 1017.51 1017.89 1018.18 1018.36 1018.47 1018.54 1018.63 1018.75 1018.91 1019.12 1019.34 1019.52 1019.64 1019.66 1019.57 1019.39 1019.12 1018.81
1008.46 1009.30 1010.04 1010.63 1011.08 1011.44 1011.78 1012.14 1012.59 1013.10 1013.67 1014.22 1014.70 1015.06 1015.27 1015.33 1015.27 1015.16 1015.08 1015.08 1015.21 1015.48 1015.87 1016.34 1016.84 1017.29 1017.67 1017.96 1018.16 1018.29 1018.40 1018.51 1018.67 1018.86 1019.09 1019.32 1019.53 1019.67 1019.72 1019.67 1019.52 1019.29 1019.00
1008.11 1008.99 1009.79 1010.46 1010.99 1011.41 1011.76 1012.11 1012.50 1012.93 1013.39 1013.85 1014.26 1014.57 1014.77 1014.86 1014.86 1014.83 1014.82 1014.89 1015.06 1015.35 1015.73 1016.18 1016.65 1017.08 1017.44 1017.73 1017.93 1018.09 1018.22 1018.37 1018.54 1018.75 1018.98 1019.22 1019.43 1019.59 1019.66 1019.64 1019.53 1019.34 1019.11
1007.74 1008.63 1009.47 1010.20 1010.78 1011.25 1011.63 1011.97 1012.31 1012.68 1013.06 1013.45 1013.80 1014.09 1014.30 1014.43 1014.50 1014.55 1014.62 1014.75 1014.96 1015.27 1015.65 1016.07 1016.50 1016.90 1017.24 1017.51 1017.73 1017.90 1018.05 1018.21 1018.39 1018.60 1018.82 1019.04 1019.24 1019.39 1019.47 1019.48 1019.41 1019.29 1019.11
1007.32 1008.19 1009.04 1009.79 1010.42 1010.92 1011.33 1011.69 1012.02 1012.35 1012.69 1013.03 1013.36 1013.64 1013.87 1014.05 1014.19 1014.31 1014.46 1014.65 1014.91 1015.22 1015.59 1015.99 1016.39 1016.75 1017.07 1017.33 1017.55 1017.73 1017.89 1018.06 1018.24 1018.43 1018.63 1018.82 1018.99 1019.12 1019.20 1019.23 1019.20 1019.13 1019.02
1006.83 1007.65 1008.47 1009.22 1009.87 1010.41 1010.85 1011.24 1011.59 1011.92 1012.26 1012.60 1012.92 1013.21 1013.47 1013.69 1013.90 1014.09 1014.30 1014.55 1014.84 1015.17 1015.53 1015.90 1016.27 1016.61 1016.91 1017.17 1017.39 1017.57 1017.74 1017.91 1018.08 1018.25 1018.41 1018.56 1018.70 1018.80 1018.87 1018.91 1018.92 1018.90 1018.85
1006.31 1007.04 1007.79 1008.51 1009.15 1009.71 1010.20 1010.62 1011.01 1011.39 1011.75 1012.10 1012.44 1012.75 1013.04 1013.31 1013.56 1013.81 1014.08 1014.36 1014.68 1015.02 1015.38 1015.75 1016.10 1016.42 1016.72 1016.97 1017.19 1017.39 1017.57 1017.73 1017.88 1018.03 1018.16 1018.27 1018.36 1018.44 1018.50 1018.54 1018.58 1018.60 1018.61
1005.83 1006.44 1007.09 1007.73 1008.33 1008.89 1009.40 1009.87 1010.31 1010.73 1011.13 1011.52 1011.88 1012.22 1012.53 1012.83 1013.12 1013.41 1013.71 1014.03 1014.37 1014.73 1015.10 1015.46 1015.81 1016.13 1016.43 1016.69 1016.92 1017.12 1017.31 1017.47 1017.62 1017.74 1017.85 1017.93 1017.99 1018.04 1018.09 1018.13 1018.19 1018.25 1018.32
1005.48 1005.95 1006.46 1006.99 1007.52 1008.04 1008.55 1009.05 1009.52 1009.98 1010.42 1010.83 1011.22 1011.57 1011.90 1012.21 1012.52 1012.83 1013.16 1013.51 1013.87 1014.25 1014.63 1015.01 1015.36 1015.69 1015.99 1016.27 1016.51 1016.73 1016.92 1017.10 1017.24 1017.36 1017.45 1017.52 1017.56 1017.60 1017.64 1017.69 1017.77 1017.86 1017.96
1005.37 1005.67 1006.03 1006.42 1006.84 1007.29 1007.77 1008.25 1008.74 1009.21 1009.67 1010.09 1010.48 1010.83 1011.16 1011.47 1011.78 1012.11 1012.45 1012.82 1013.20 1013.60 1014.00 1014.39 1014.76 1015.10 1015.41 1015.69 1015.95 1016.18 1016.39 1016.58 1016.74 1016.86 1016.96 1017.03 1017.08 1017.11 1017.16 1017.22 1017.30 1017.41 1017.53
1005.56 1005.71 1005.90 1006.13 1006.42 1006.77 1007.17 1007.60 1008.06 1008.51 1008.95 1009.36 1009.73 1010.07 1010.38 1010.67 1010.98 1011.30 1011.65 1012.03 1012.44 1012.85 1013.27 1013.67 1014.05 1014.40 1014.71 1015.00 1015.27 1015.51 1015.74 1015.94 1016.12 1016.27 1016.39 1016.48 1016.54 1016.59 1016.64 1016.71 1016.79 1016.90 1017.03
1006.07 1006.09 1006.13 1006.21 1006.35 1006.57 1006.86 1007.21 1007.60 1008.01 1008.40 1008.76 1009.10 1009.40 1009.67 1009.94 1010.23 1010.55 1010.89 1011.28 1011.69 1012.12 1012.54 1012.95 1013.33 1013.67 1013.98 1014.26 1014.53 1014.78 1015.01 1015.23 1015.44 1015.62 1015.78 1015.90 1015.99 1016.06 1016.12 1016.18 1016.25 1016.33 1016.44
1006.87 1006.80 1006.72 1006.67 1006.67 1006.76 1006.94 1007.18 1007.48 1007.81 1008.13 1008.43 1008.71 1008.96 1009.19 1009.43 1009.69 1009.99 1010.33 1010.71 1011.11 1011.53 1011.95 1012.34 1012.70 1013.03 1013.32 1013.58 1013.83 1014.07 1014.31 1014.55 1014.78 1015.00 1015.19 1015.35 1015.47 1015.55 1015.61 1015.65 1015.68 1015.72 1015.77
1007.85 1007.74 1007.59 1007.44 1007.34 1007.32 1007.39 1007.53 1007.74 1007.97 1008.22 1008.45 1008.67 1008.86 1009.05 1009.26 1009.49 1009.76 1010.07 1010.43 1010.81 1011.21 1011.60 1011.96 1012.28 1012.57 1012.82 1013.05 1013.27 1013.50 1013.73 1013.97 1014.22 1014.46 1014.68 1014.86 1015.00 1015.08 1015.12 1015.12 1015.09 1015.05 1015.02
1008.87 1008.77 1008.60 1008.41 1008.26 1008.16 1008.15 1008.22 1008.34 1008.50 1008.68 1008.85 1009.01 1009.16 1009.30 1009.47 1009.66 1009.90 1010.18 1010.50 1010.84 1011.19 1011.53 1011.84 1012.11 1012.35 1012.55 1012.73 1012.92 1013.11 1013.32 1013.56 1013.81 1014.06 1014.28 1014.47 1014.60 1014.67 1014.66 1014.60 1014.49 1014.35 1014.20
1009.80 1009.76 1009.62 1009.44 1009.28 1009.17 1009.12 1009.14 1009.22 1009.33 1009.46 1009.59 1009.70 1009.81 1009.91 1010.03 1010.18 1010.37 1010.61 1010.87 1011.16 1011.45 1011.73 1011.97 1012.18 1012.35 1012.50 1012.63 1012.77 1012.92 1013.11 1013.32 1013.55 1013.78 1013.99 1014.16 1014.25 1014.27 1014.21 1014.06 1013.85 1013.60 1013.33
1010.54 1010.57 1010.51 1010.39 1010.27 1010.19 1010.15 1010.18 1010.25 1010.34 1010.45 1010.54 1010.62 1010.69 1010.76 1010.84 1010.94 1011.07 1011.24 1011.44 1011.66 1011.88 1012.08 1012.26 1012.40 1012.51 1012.60 1012.69 1012.78 1012.89 1013.04 1013.21 1013.40 1013.59 1013.76 1013.87 1013.91 1013.86 1013.72 1013.48 1013.16 1012.80 1012.41
1011.04 1011.17 1011.19 1011.16 1011.13 1011.11 1011.13 1011.19 1011.28 1011.39 1011.48 1011.56 1011.62 1011.65 1011.68 1011.70 1011.75 1011.81 1011.91 1012.04 1012.18 1012.32 1012.46 1012.57 1012.66 1012.72 1012.77 1012.81 1012.87 1012.94 1013.04 1013.17 1013.30 1013.43 1013.52 1013.56 1013.51 1013.38 1013.14 1012.80 1012.39 1011.93 1011.44
1011.34 1011.54 1011.66 1011.74 1011.80 1011.87 1011.97 1012.08 1012.21 1012.33 1012.42 1012.49 1012.52 1012.51 1012.49 1012.45 1012.42 1012.42 1012.44 1012.48 1012.55 1012.63 1012.70 1012.77 1012.82 1012.86 1012.89 1012.91 1012.94 1012.98 1013.04 1013.10 1013.17 1013.21 1013.21 1013.15 1013.01 1012.77 1012.43 1012.01 1011.52 1010.98 1010.42
1011.51 1011.77 1011.97 1012.14 1012.29 1012.45 1012.61 1012.78 1012.94 1013.07 1013.16 1013.19 1013.18 1013.12 1013.03 1012.92 1012.82 1012.74 1012.68 1012.65 1012.66 1012.68 1012.72 1012.77 1012.81 1012.84 1012.87 1012.90 1012.92 1012.94 1012.95 1012.96 1012.94 1012.89 1012.79 1012.61 1012.36 1012.02 1011.60 1011.10 1010.55 1009.96 1009.36
1011.65 1011.95 1012.20 1012.43 1012.66 1012.88 1013.09 1013.29 1013.45 1013.56 1013.61 1013.60 1013.53 1013.39 1013.23 1013.04 1012.86 1012.70 1012.58 1012.50 1012.46 1012.46 1012.49 1012.53 1012.59 1012.65 1012.70 1012.75 1012.77 1012.78 1012.76 1012.71 1012.61 1012.46 1012.25 1011.96 1011.60 1011.17 1010.66 1010.10 1009.51 1008.90 1008.30
Thickness
5760 5756 5753 5752 5750 5748 5745 5745 5744 5743 5743 5742 5741 5739 5738 5741 5741 5740 5739 5738 5738 5736 5735 5734 5732 5731 5730 5728 5728 5726 5726 5725 5726 5723 5722 5725 5727 5726 5724 5724 5723 5722 5720
5757 5754 5751 5749 5748 5746 5744 5744 5742 5741 5742 5742 5741 5740 5740 5741 5740 5740 5738 5738 5737 5736 5736 5733 5732 5730 5728 5727 5727 5725 5724 5725 5725 5721 5717 5715 5716 5720 5725 5722 5721 5720 5719
5758 5754 5750 5748 5748 5745 5744 5744 5742 5742 5742 5742 5740 5740 5739 5739 5738 5736 5737 5737 5737 5736 5734 5733 5732 5730 5729 5726 5726 5725 5723 5721 5723 5723 5717 5711 5707 5712 5717 5719 5718 5718 5716
5763 5757 5753 5750 5749 5747 5747 5745 5743 5742 5742 5741 5740 5739 5736 5735 5736 5737 5737 5737 5737 5735 5734 5733 5732 5730 5730 5727 5726 5725 5725 5722 5720 5721 5721 5718 5713 5707 5706 5712 5716 5716 5714
5768 5761 5758 5755 5753 5751 5749 5746 5744 5742 5742 5742 5742 5740 5739 5739 5739 5739 5737 5736 5736 5735 5734 5733 5732 5730 5729 5727 5726 5725 5724 5723 5720 5720 5719 5718 5716 5714 5707 5703 5707 5711 5713
5773 5767 5764 5760 5756 5754 5751 5748 5744 5743 5744 5743 5743 5742 5740 5740 5739 5737 5735 5735 5735 5735 5734 5733 5732 5730 5729 5727 5726 5724 5723 5721 5720 5719 5718 5716 5713 5710 5709 5704 5704 5705 5709
5776 5769 5765 5761 5758 5755 5753 5750 5746 5743 5744 5744 5743 5742 5742 5741 5739 5738 5736 5736 5736 5735 5735 5735 5732 5730 5728 5727 5725 5723 5722 5721 5719 5717 5716 5716 5715 5713 5710 5705 5703 5702 5706
5781 5775 5770 5765 5762 5759 5756 5752 5747 5745 5745 5745 5744 5743 5742 5742 5741 5740 5740 5739 5740 5740 5738 5735 5732 5730 5728 5727 5724 5723 5721 5720 5718 5717 5715 5713 5713 5712 5709 5705 5700 5696 5698
5784 5779 5775 5770 5766 5763 5759 5756 5751 5748 5747 5746 5744 5743 5742 5743 5743 5742 5741 5742 5741 5741 5738 5735 5732 5730 5728 5726 5723 5721 5720 5719 5716 5715 5713 5711 5711 5710 5708 5706 5701 5693 5687
5787 5784 5780 5776 5772 5769 5765 5761 5755 5751 5749 5748 5745 5744 5744 5743 5743 5742 5741 5741 5741 5740 5736 5734 5731 5729 5727 5724 5722 5720 5719 5716 5714 5712 5710 5709 5708 5707 5705 5703 5700 5696 5690
5791 5787 5784 5781 5776 5773 5768 5762 5757 5753 5750 5749 5747 5746 5745 5744 5743 5741 5741 5740 5740 5738 5735 5732 5730 5728 5725 5723 5719 5718 5717 5714 5712 5711 5709 5706 5704 5702 5701 5699 5697 5694 5691
5796 5792 5788 5783 5777 5773 5769 5764 5760 5756 5754 5752 5749 5747 5746 5745 5743 5741 5740 5739 5737 5735 5733 5730 5728 5726 5724 5721 5718 5714 5714 5712 5709 5707 5705 5703 5701 5698 5696 5693 5692 5690 5689
5794 5791 5786 5781 5778 5775 5772 5768 5764 5760 5757 5754 5751 5748 5746 5744 5742 5741 5740 5738 5735 5733 5731 5728 5725 5723 5722 5719 5716 5713 5711 5709 5707 5705 5702 5699 5697 5694 5692 5689 5687 5686 5685
5791 5788 5781 5779 5777 5776 5774 5771 5767 5764 5760 5756 5751 5748 5746 5744 5742 5740 5738 5736 5733 5730 5728 5726 5723 5721 5719 5716 5713 5710 5707 5705 5703 5702 5699 5697 5694 5691 5688 5685 5683 5681 5678
5787 5784 5781 5779 5777 5774 5773 5772 5769 5766 5762 5757 5752 5749 5747 5744 5741 5739 5736 5734 5731 5728 5725 5722 5720 5717 5715 5713 5710 5706 5704 5700 5698 5696 5695 5693 5691 5688 5685 5682 5680 5676 5673
5782 5782 5780 5777 5774 5772 5772 5772 5770 5767 5764 5758 5754 5751 5747 5744 5740 5738 5735 5731 5728 5725 5722 5719 5716 5713 5712 5710 5706 5702 5699 5696 5693 5690 5689 5688 5686 5684 5681 5678 5676 5672 5668
5777 5777 5776 5775 5773 5773 5772 5768 5767 5764 5760 5756 5753 5749 5746 5741 5739 5736 5732 5728 5724 5720 5717 5714 5711 5708 5705 5702 5699 5695 5692 5689 5688 5686 5683 5682 5684 5682 5678 5674 5671 5668 5665
5768 5771 5772 5771 5771 5771 5769 5767 5764 5760 5756 5752 5748 5745 5741 5737 5734 5730 5726 5723 5719 5715 5711 5708 5705 5702 5699 5695 5691 5688 5684 5682 5681 5679 5677 5676 5675 5674 5672 5670 5668 5665 5664
5759 5761 5764 5764 5763 5762 5761 5757 5754 5752 5747 5743 5740 5738 5736 5731 5727 5722 5719 5716 5711 5708 5704 5701 5698 5695 5692 5688 5684 5679 5676 5674 5673 5673 5672 5670 5669 5668 5664 5661 5659 5659 5659
5747 5747 5749 5750 5749 5748 5748 5745 5740 5737 5733 5732 5730 5729 5726 5722 5718 5715 5711 5707 5703 5699 5696 5693 5691 5688 5685 5682 5676 5670 5668 5666 5666 5666 5666 5664 5662 5661 5657 5653 5652 5650 5651
5733 5733 5732 5731 5731 5732 5732 5726 5724 5720 5721 5722 5720 5717 5713 5710 5707 5704 5701 5697 5693 5690 5686 5684 5682 5680 5678 5675 5669 5663 5660 5659 5659 5658 5658 5657 5655 5651 5648 5645 5644 5643 5642
5719 5719 5716 5715 5715 5716 5714 5710 5707 5707 5709 5709 5706 5704 5701 5699 5695 5692 5689 5686 5683 5680 5677 5674 5673 5672 5670 5667 5663 5658 5653 5651 5648 5647 5647 5646 5643 5640 5637 5635 5634 5632 5629
5704 5704 5702 5699 5699 5699 5699 5693 5692 5694 5694 5692 5691 5689 5687 5684 5681 5678 5676 5673 5670 5668 5666 5664 5662 5660 5659 5657 5654 5649 5644 5639 5636 5636 5635 5632 5629 5626 5626 5625 5623 5620 5618
5690 5689 5688 5685 5682 5682 5682 5680 5679 5679 5678 5677 5675 5674 5672 5670 5667 5664 5663 5660 5657 5655 5653 5651 5648 5647 5645 5643 5640 5637 5632 5628 5625 5623 5622 5619 5618 5616 5615 5615 5614 5612 5611
5676 5675 5673 5670 5668 5668 5666 5666 5666 5666 5664 5662 5661 5659 5659 5658 5655 5653 5651 5648 5645 5642 5640 5638 5636 5633 5630 5626 5623 5620 5618 5614 5611 5607 5606 5606 5606 5606 5607 5607 5607 5606 5605
5663 5661 5659 5657 5655 5654 5653 5652 5652 5651 5650 5648 5647 5647 5646 5644 5643 5641 5640 5638 5635 5631 5628 5626 5623 5621 5617 5614 5611 5607 5603 5599 5594 5590 5592 5593 5593 5594 5594 5594 5595 5595 5594